"Pseudo-MPEC" for C24RKT2

Created 2020 Feb 16 9:07:08 UT using Find_Orb

Click here for an explanation of pseudo-MPECs

 
 Astrometry: 
     C24RKT2  C2020 02 14.32015 09 28 11.24 +18 24 01.5    ~2E8M 20.6 GVNEOCPG96
     C24RKT2  C2020 02 14.33040 09 28 08.66 +18 24 45.8    ~2E8M 20.8 GVNEOCPG96
     C24RKT2  C2020 02 14.33552 09 28 07.35 +18 25 07.9    ~2E8M 20.9 GVNEOCPG96
     C24RKT2 KC2020 02 14LlY+pyg@q5/hvFDK:LN#*w!kFGCNUQT!1_qdL85b!$8GI=jR@tOB734
     C24RKT2 KC2020 02 14?OCb#R:WT%KiB=Y*]w@_;CV_uQ3JMRSp:VI.g#3](WFjdMa^fV(w734
     C24RKT2 KC2020 02 14;#NN(![KulN)YQq=4(CZr-RyI7?%?uvDI$y*`K%Rybe+3(?;%Sgg734
     C24RKT2  C2020 02 14.44852 09 27 39.06 +18 33 17.6    ~2EB7 19.6 GVNEOCPI52
     C24RKT2  C2020 02 14.44983 09 27 38.73 +18 33 22.3    ~2EB7 20.3 GVNEOCPI52
     C24RKT2  C2020 02 14.45114 09 27 38.45 +18 33 28.9    ~2EB7 20.0 GVNEOCPI52
     C24RKT2  C2020 02 14.45245 09 27 38.06 +18 33 34.2    ~2EB7 20.8 GVNEOCPI52
     C24RKT2 IC2020 02 14+@6B`o;Vj8!npxV%#AstrometrybY?(dS0]H666#u0mrJb3'-%\!L01
     C24RKT2 IC2020 02 14v6y,pVIOuQ9NaPwQfg.;w!3!]K?LV/Kc%'fTV=G+Xw(d=IrYFtF8L01
     C24RKT2 KC2020 02 14G_=(Xi^hn!mOg+^I6=!r'AyQBMxD?E^\MKf*sgRH/.TmWD02qkQ8L01
     C24RKT2 KC2020 02 14E\4rZY8Z=ta3MsoJB$XPqiN\E'-^LirEJ+7*eE6es.9BX5FjeqY9K63
     C24RKT2 KC2020 02 14-[95hwaXI`\/w@e=e!\8cuZA01OREC_\NI36'6P=E(]1EHf'aPWAK63
     C24RKT2 KC2020 02 14KA7K.\HGb^veqfF-c-xFrCI^%d46_:W;Q\I3*qOhG;93a!)%.(%Z204
     C24RKT2 KC2020 02 14.92244 09 25 54.85 +19 11 25.1    ~2EMq 19.9 VqNEOCPI93
     C24RKT2 KC2020 02 14%N^8-tRG,mRh=?shn;5cU%V+*g/xm8pQ*W\$2*0!OsixiX;DZ@T?K63
     C24RKT2 KC2020 02 14.93002 09 25 52.66 +19 12 05.0    ~2EMq 20.1 VqNEOCPI93
     C24RKT2 KC2020 02 14$L-h$TZt+dR1!0C+Ax,JKOH:-d8A^l`crm+v!eq-)#r*3pi.HOYs204
     C24RKT2 KC2020 02 14.93775 09 25 50.38 +19 12 46.6    ~2EMq 20.2 VqNEOCPI93
     C24RKT2 KC2020 02 15$[4eE,*MGGEredacted;nRBpqmWJ)+7SNF!$Yu\:cH:i.DpUE$Q8H21
     C24RKT2 KC2020 02 15tH_QH/4-Fh\li`%dB@'DZKSXAbW]f.O:V4EXCZfjHH67.V*6]OJbH21
     C24RKT2 KC2020 02 15\\*x9g?G=YWQ%5O9U?a#/Re%.p;Fy?.5!l3n4R;QfL\Ee^q^yunQH21
     C24RKT2 KC2020 02 15:M:0C:cbxof2)r(4^TJ)J6ABt@qBL1p@v9Z9!6l?_XRhPZVih'L9H21
     C24RKT2  C2020 02 15.21895 09 24 35.63 +19 39 01.7    ~2F5b 20.1 GVNEOCPI52
     C24RKT2  C2020 02 15.22070 09 24 35.06 +19 39 11.9    ~2F5b 20.3 GVNEOCPI52
     C24RKT2  C2020 02 15.22245 09 24 34.48 +19 39 22.4    ~2F5b 20.5 GVNEOCPI52
     C24RKT2  C2020 02 15.22420 09 24 33.91 +19 39 32.7    ~2F5b 20.0 GVNEOCPI52
     C24RKT2  C2020 02 15qH[kh,hn=^4mwH-R9yLx1XA;lw*ZXWsOY.uGncpf!^YRaclick@*654
     C24RKT2  C2020 02 15s0x*hsFZKP;)ah3@QbBy%lePy27?here79'jwocC*4NErig+drG,654
     C24RKT2  C2020 02 15LLx7,(6@04W#;!e?xoSLn%;5d%.1eZ7=KCF;fLPw)ES)0r'%%-s+654
     C24RKT2 KC2020 02 15#/I\q[H+r?Vper1+x;]'a6eqbFQg.JL13vm*1;5)5FSr?`qZCRA3104
     C24RKT2 KC2020 02 16=muDLHi]\e*fvVY5git,OEfLxb_oUZgSw9!@P]+5$[5Z:J6'md3C104
     C24RKT2 KC2020 02 16dTopU1%iSX@FY:QqEfuZ!/u%yVr=Do'ReCHt/M=b+8.R_5RKd2sa104
     C24RKT2 KC2020 02 16_L2j'KnFotXC8@(*(F\h6hm!NNgTZyDP[pD'?:w]nqexyf4A#5VX734
     C24RKT2 KC2020 02 16=^t*9/^7_?a^FxW\pN!HNg7oC:^L!8`forQcDCIc*ace_@BAjKC9734
     C24RKT2 KC2020 02 16yd*H.D-bJb$,hOk=3R'x7!u3kFV^y@h!(fbjj%ko'w](NEmZFq[AH36
     C24RKT2 KC2020 02 16*'A:et5.u=N^b?cShD*%Ld-LWg,#8hxCos74mBCxK'`DDm2hw7o;734
     C24RKT2 KC2020 02 16DALe'P#o(d8SIOlMVDqIexplanation0:F!/;y*hd1rB[ByVZRS(H36
     C24RKT2 KC2020 02 16LI\[KOk?PG(kFf3eR+-3,Ofd?vq!It]#r(*dHZ1P%1q9vIx]6^3!734
     C24RKT2 KC2020 02 16QuwvFv4#Q,,[JTo5^NG/AwX@[n$HK%SF#Uw#Qe'(Kg=vA2eY;fi\H36
     C24RKT2 KC2020 02 16d!yJ[Gu`TA=/ru`]VCcC`9M$wBk@$/v[.F/AVcNriI2%/iJ(@Q-qH36

Station data:
(104) San Marcello Pistoiese  (N44.063037 E10.804200)  Italy. 0.40-m f/5
   reflector.
(204) Schiaparelli Observatory  (N45.867933 E8.770800)  Italy.  Observer L.
   Buzzi. 0.60-m f/4.64 Newtonian + CCD.
(654) Table Mountain Observatory, Wrightwood-PHMC  (N34.381822 W117.681590)
   US/California.
(734) Farpoint Observatory, Eskridge  (N38.890107 W96.001400)  US/Kansas.
   Observer G. Hug. 0.69-m reflector + CCD.
(G96) Mt. Lemmon Survey  (N32.442754 W110.788720)  US/Arizona.  Observers T.
   A. Pruyne, B. M. Africano, E. J. Christensen, G. A. Farneth, D. C. Fuls,
   A. R. Gibbs, A. D. Grauer, H. Gröller, J. A. Johnson, R. A. Kowalski, S.
   M. Larson, G. J. Leonard, D. Rankin, R. L. Seaman, F. C. Shelly. 1.5-m
   reflector + 10K CCD.
(H21) Astronomical Research Observatory, Westfield  (N39.483057 W87.968270)
   US/Illinois. 0.76-m f/3.0 astrograph + CCD.
(H36) Sandlot Observatory, Scranton  (N38.797693 W95.706400)  US/Kansas.
   Observer G. Hug. 0.56-m reflector + CCD.
(I52) Steward Observatory, Mt. Lemmon Station  (N32.442547 W110.788920)
   US/Arizona.  Observers T. A. Pruyne, B. M. Africano, E. J. Christensen, G.
   A. Farneth, D. C. Fuls, A. R. Gibbs, A. D. Grauer, H. Gröller, J. A.
   Johnson, R. A. Kowalski, S. M. Larson, G. J. Leonard, D. Rankin, R. L.
   Seaman, F. C. Shelly. 1.0-m reflector + CCD.
(I93) St Pardon de Conques  (N44.558710 W0.203000)  France.  Observer F.
   Losse. 0.40-m f/3.7 reflector + CCD.
(K63) G. Pascoli Observatory, Castelvecchio Pascoli  (N44.082410 E10.462000)
   Italy.
(L01) Višnjan Observatory, Tičan  (N45.290900 E13.749300)  Croatia.
   Observers K. Korlević, E. Pettarin. Measurer E. Pettarin. 1.0-m f/2.9
   reflector + CCD.

Orbital elements:  C24RKT2
   Perihelion 2020 Apr 3.791924 +/- 0.0515 TT = 19:00:22 (JD 2458943.291924)
Epoch 2020 Feb 16.0 TT = JDT 2458895.5   Earth MOID: 0.0024   Ju: 0.5005
M 348.55595918 +/- 0.13             Ve: 0.0211   Ma: 0.0284   AutoNEOCP
n   0.23945553 +/- 0.0026           Peri.   93.61511 +/- 0.0021
a   2.56834165 +/- 0.0186           Node   137.03604 +/- 0.0039
e   0.7517356 +/- 0.00202           Incl.    1.90531 +/- 0.0051
P   4.12                   H 25.7   G  0.15   U  8.7  
q 0.63762757 +/- 0.000576    Q 4.49905573 +/- 0.0375
From 43 observations 2020 Feb. 14-16 (44.4 hr); mean residual 0".58
Residuals in arcseconds: 
200214 G96  .30+  .36-    200214 204  .03+  .45+    200215 654  .30+  .22-    
200214 G96  .32+  .26-    200214 I93  .09-  .18+    200215 654  .23+  .03-    
200214 G96  .04+  .25-    200214 K63  .38-  .18-    200215 104  .15+  .19-    
200214 734  .25+  .47+    200214 I93  .28+  .22-    200216 104  .28-  .17-    
200214 734  .13+  .41-    200214 204  .10-  .21-    200216 104  .12-  .32+    
200214 734  2.5-  1.3-    200214 I93  .17+  .25+    200216 734  .03-  1.2+    
200214 I52  .15+  .46+    200215 H21  .46+  .24+    200216 734  .05-  .25+    
200214 I52  .03+  .53-    200215 H21  .67+  .14+    200216 H36  .22+  .30+    
200214 I52  .61+  .37+    200215 H21  .47+  .13+    200216 734  1.2-  2.6-    
200214 I52  .37-  .03-    200215 H21  .55+  .04+    200216 H36  .69+  1.1+    
200214 L01  .76-  .16-    200215 I52  .13+  .24-    200216 734  .21-  .68-    
200214 L01  .65-  .17+    200215 I52  .20+  .38-    200216 H36  .59-  .16+    
200214 L01  .15-  .30+    200215 I52  .13+  .21-    200216 H36  .12+  .28-    
200214 K63  .10+  .94+    200215 I52  .22+  .25-    
200214 K63  .35+  1.2+    200215 654  .35+  .10-    

Ephemerides (geocentric):
Date (UTC) HH   RA              Dec         delta   r     elong  mag " sig PA
---- -- -- --  -------------   -----------  ------ ------ -----  --- ---- ---
2020 02 16 09  09 17 31.282   +21 59 11.64  .05393 1.0404 166.8 20.2 .150 129
2020 02 16 10  09 17 11.790   +22 05 32.04  .05344 1.0399 166.6 20.1 .146 126
2020 02 16 11  09 16 51.908   +22 11 59.34  .05295 1.0394 166.5 20.1 .143 124
2020 02 16 12  09 16 31.623   +22 18 33.73  .05245 1.0389 166.3 20.1 .139 122
2020 02 16 13  09 16 10.922   +22 25 15.40  .05196 1.0383 166.1 20.1 .134 119
2020 02 16 14  09 15 49.794   +22 32 04.55  .05147 1.0378 165.9 20.1 .130 116
2020 02 16 15  09 15 28.225   +22 39 01.38  .05098 1.0373 165.8 20.1 .125 112
2020 02 16 16  09 15 06.200   +22 46 06.10  .05048 1.0368 165.6 20.0 .121 108
2020 02 16 17  09 14 43.706   +22 53 18.94  .04999 1.0363 165.4 20.0 .116 103
2020 02 16 18  09 14 20.727   +23 00 40.13  .04950 1.0358 165.2 20.0 .112  98
2020 02 16 19  09 13 57.247   +23 08 09.89  .04901 1.0353 165.0 20.0 .109  92
2020 02 16 20  09 13 33.251   +23 15 48.48  .04852 1.0348 164.8 20.0 .106  85
2020 02 16 21  09 13 08.720   +23 23 36.14  .04803 1.0343 164.6 20.0 .105  78
2020 02 16 22  09 12 43.638   +23 31 33.14  .04754 1.0338 164.4 20.0 .106  70
2020 02 16 23  09 12 17.984   +23 39 39.75  .04705 1.0333 164.2 19.9 .108  61
2020 02 17 00  09 11 51.741   +23 47 56.26  .04656 1.0328 164.0 19.9 .113  53
2020 02 17 01  09 11 24.887   +23 56 22.96  .04607 1.0323 163.8 19.9 .120  44
2020 02 17 02  09 10 57.401   +24 05 00.16  .04558 1.0318 163.6 19.9 .130  37
2020 02 17 03  09 10 29.260   +24 13 48.16  .04510 1.0313 163.4 19.9 .142  30
2020 02 17 04  09 10 00.441   +24 22 47.30  .04461 1.0307 163.2 19.8 .157  24
2020 02 17 05  09 09 30.920   +24 31 57.93  .04412 1.0302 162.9 19.8 .175  19
2020 02 17 06  09 09 00.670   +24 41 20.39  .04364 1.0297 162.7 19.8 .194  14
2020 02 17 07  09 08 29.665   +24 50 55.06  .04315 1.0292 162.5 19.8 .216  10
2020 02 17 08  09 07 57.876   +25 00 42.31  .04267 1.0287 162.3 19.8 .240   6
2020 02 17 09  09 07 25.274   +25 10 42.56  .04218 1.0282 162.0 19.8 .267   3
2020 02 17 10  09 06 51.826   +25 20 56.20  .04170 1.0277 161.8 19.7 .295   0
2020 02 17 11  09 06 17.501   +25 31 23.69  .04122 1.0272 161.5 19.7 .326 178
2020 02 17 12  09 05 42.263   +25 42 05.46  .04074 1.0267 161.3 19.7 .359 176
2020 02 17 13  09 05 06.076   +25 53 01.98  .04025 1.0262 161.0 19.7 .395 174
2020 02 17 14  09 04 28.902   +26 04 13.74  .03977 1.0257 160.7 19.7 .433 172
2020 02 17 15  09 03 50.699   +26 15 41.24  .03929 1.0252 160.5 19.7 .473 170
2020 02 17 16  09 03 11.426   +26 27 25.02  .03881 1.0247 160.2 19.6 .517 169
2020 02 17 17  09 02 31.037   +26 39 25.63  .03834 1.0242 159.9 19.6 .563 167
2020 02 17 18  09 01 49.485   +26 51 43.63  .03786 1.0237 159.6 19.6 .612 166
2020 02 17 19  09 01 06.720   +27 04 19.63  .03738 1.0231 159.3 19.6 .664 165
2020 02 17 20  09 00 22.687   +27 17 14.24  .03690 1.0226 159.0 19.6 .720 164
2020 02 17 21  08 59 37.331   +27 30 28.12  .03643 1.0221 158.7 19.5 .779 163
2020 02 17 22  08 58 50.593   +27 44 01.94  .03595 1.0216 158.4 19.5 .842 162
2020 02 17 23  08 58 02.409   +27 57 56.41  .03548 1.0211 158.0 19.5 .909 161
2020 02 18 00  08 57 12.711   +28 12 12.26  .03501 1.0206 157.7 19.5 .981 160
2020 02 18 01  08 56 21.430   +28 26 50.26  .03454 1.0201 157.4 19.5 1.06 159
2020 02 18 02  08 55 28.488   +28 41 51.20  .03407 1.0196 157.0 19.4 1.14 159
2020 02 18 03  08 54 33.807   +28 57 15.92  .03360 1.0191 156.7 19.4 1.22 158
2020 02 18 04  08 53 37.300   +29 13 05.29  .03313 1.0186 156.3 19.4 1.31 157
2020 02 18 05  08 52 38.876   +29 29 20.21  .03266 1.0181 155.9 19.4 1.41 156
2020 02 18 06  08 51 38.438   +29 46 01.63  .03220 1.0176 155.5 19.4 1.51 156
2020 02 18 07  08 50 35.882   +30 03 10.53  .03173 1.0171 155.1 19.3 1.62 155
2020 02 18 08  08 49 31.098   +30 20 47.92  .03127 1.0166 154.7 19.3 1.73 155